Myrtle Beach, SC

2:23 AM EDT on June 27, 2017 (GMT -0400)
Myrtle Beach International

Weather History for KMYR - July, 2013

Change the Weather History Date:

Saturday, July 6, 2013

  Actual Average Record
Temperature  
Mean Temperature 78 °F -  
Max Temperature 84 °F 84 °F 98 °F (1990)
Min Temperature 73 °F 69 °F 59 °F (1951)
Cooling Degree Days 14    
Growing Degree Days 28 (Base 50)    
Moisture  
Dew Point 72 °F    
Average Humidity 75    
Maximum Humidity 94    
Minimum Humidity 66    
Precipitation  
Precipitation 0.00 in - - ()
Sea Level Pressure  
Sea Level Pressure 30.22 in    
Wind  
Wind Speed 9 mph (SSE)    
Max Wind Speed 15 mph    
Max Gust Speed -    
Visibility 10 miles    
Events      
Averages and records for this station are not official NWS values.
T = Trace of Precipitation, MM = Missing Value Source: NWS Daily Summary

Daily Weather History Graph

Daily Weather History Graph

Search for Another Location

Airport or City:

Trip Planner

Search our weather history database for the weather conditions in past years. The results will help you decide how hot, cold, wet, or windy it might be!

Date:

Astronomy

Jul. 06, 2013 Rise Set
Actual Time 6:11 AM EDT 8:29 PM EDT
Civil Twilight 5:42 AM EDT 8:58 PM EDT
Nautical Twilight 5:07 AM EDT 9:33 PM EDT
Astronomical Twilight 4:28 AM EDT 10:11 PM EDT
Moon 4:53 AM EDT (7/6) 7:12 PM EDT (7/6)
Length of Visible Light 15h 15m
Length of Day
14h 18m
Waning Crescent, 2% of the Moon is Illuminated
Jul 6
Waning Crescent
Jul 8
New
Jul 15
First Quarter
Jul 22
Full
Jul 29
Last Quarter

Hourly Weather History & Observations

Time (EDT) Temp. Heat Index Dew Point Humidity Pressure Visibility Wind Dir Wind Speed Gust Speed Precip Events Conditions
12:15 AM 80.6 °F 84.6 °F 71.6 °F 74% 30.26 in 10.0 mi South 9.2 mph - N/A   Scattered Clouds
12:35 AM 80.6 °F 84.6 °F 71.6 °F 74% 30.26 in 10.0 mi SSE 9.2 mph - N/A   Scattered Clouds
12:55 AM 80.6 °F 84.6 °F 71.6 °F 74% 30.25 in 10.0 mi South 8.1 mph - N/A   Scattered Clouds
1:15 AM 80.6 °F 84.6 °F 71.6 °F 74% 30.24 in 10.0 mi SSE 9.2 mph - N/A   Scattered Clouds
1:35 AM 78.8 °F - 73.4 °F 83% 30.24 in 10.0 mi SSE 11.5 mph - N/A   Scattered Clouds
1:55 AM 78.8 °F - 71.6 °F 78% 30.23 in 10.0 mi SSE 10.4 mph - N/A   Clear
2:15 AM 78.8 °F - 71.6 °F 78% 30.23 in 10.0 mi SSE 8.1 mph - N/A   Partly Cloudy
2:35 AM 78.8 °F - 71.6 °F 78% 30.22 in 10.0 mi South 11.5 mph - N/A   Partly Cloudy
2:55 AM 78.8 °F - 71.6 °F 78% 30.22 in 10.0 mi South 9.2 mph - N/A   Scattered Clouds
3:15 AM 78.8 °F - 71.6 °F 78% 30.22 in 10.0 mi South 9.2 mph - N/A   Partly Cloudy
3:35 AM 78.8 °F - 71.6 °F 78% 30.21 in 10.0 mi South 8.1 mph - N/A   Scattered Clouds
3:55 AM 77.0 °F - 69.8 °F 78% 30.21 in 10.0 mi West 3.5 mph - N/A   Mostly Cloudy
4:15 AM 75.2 °F - 71.6 °F 89% 30.21 in 10.0 mi Calm Calm - N/A   Scattered Clouds
4:35 AM 78.8 °F - 71.6 °F 78% 30.21 in 10.0 mi South 8.1 mph - N/A   Scattered Clouds
4:55 AM 78.8 °F - 71.6 °F 78% 30.21 in 10.0 mi South 6.9 mph - N/A   Scattered Clouds
5:15 AM 75.2 °F - 69.8 °F 83% 30.22 in 10.0 mi Calm Calm - N/A   Mostly Cloudy
5:35 AM 73.4 °F - 71.6 °F 94% 30.21 in 10.0 mi SSE 6.9 mph - N/A   Mostly Cloudy
5:55 AM 78.8 °F - 73.4 °F 83% 30.22 in 10.0 mi SSE 6.9 mph - N/A   Mostly Cloudy
7:50 AM 80.6 °F 85.4 °F 73.4 °F 79% 30.24 in 10.0 mi SSE 11.5 mph - N/A   Scattered Clouds
8:45 AM 82.4 °F 88.2 °F 73.4 °F 74% 30.24 in 10.0 mi SSE 9.2 mph - N/A   Mostly Cloudy
9:45 AM 82.4 °F 88.2 °F 73.4 °F 74% 30.24 in 10.0 mi SE 11.5 mph - N/A   Mostly Cloudy
10:50 AM 84.2 °F 90.9 °F 73.4 °F 70% 30.25 in 10.0 mi SSE 11.5 mph - N/A   Mostly Cloudy
11:50 AM 84.2 °F 90.9 °F 73.4 °F 70% 30.25 in 10.0 mi SSE 11.5 mph - N/A   Mostly Cloudy
12:50 PM 84.2 °F 90.9 °F 73.4 °F 70% 30.24 in 10.0 mi SSE 13.8 mph - N/A   Mostly Cloudy
1:50 PM 84.2 °F 90.9 °F 73.4 °F 70% 30.23 in 10.0 mi SSE 11.5 mph - N/A   Mostly Cloudy
2:45 PM 84.2 °F 90.9 °F 73.4 °F 70% 30.22 in 10.0 mi SSE 11.5 mph - N/A   Scattered Clouds
3:45 PM 84.2 °F 89.6 °F 71.6 °F 66% 30.20 in 10.0 mi SSE 11.5 mph - N/A   Scattered Clouds
4:55 PM 84.2 °F 89.6 °F 71.6 °F 66% 30.19 in 10.0 mi SSE 15.0 mph - N/A   Scattered Clouds
5:45 PM 84.2 °F 89.6 °F 71.6 °F 66% 30.17 in 10.0 mi South 15.0 mph - N/A   Scattered Clouds
6:45 PM 82.4 °F 87.2 °F 71.6 °F 70% 30.17 in 10.0 mi SSE 15.0 mph - N/A   Mostly Cloudy
7:45 PM 82.4 °F 86.3 °F 69.8 °F 66% 30.17 in 10.0 mi South 12.7 mph - N/A   Mostly Cloudy
9:45 PM 80.6 °F 84.6 °F 71.6 °F 74% 30.19 in 10.0 mi South 6.9 mph - N/A   Scattered Clouds
10:55 PM 80.6 °F 84.6 °F 71.6 °F 74% 30.21 in 10.0 mi South 9.2 mph - N/A   Partly Cloudy
11:15 PM 80.6 °F 83.9 °F 69.8 °F 70% 30.21 in 10.0 mi South 11.5 mph - N/A   Scattered Clouds
11:35 PM 80.6 °F 83.9 °F 69.8 °F 70% 30.21 in 10.0 mi South 10.4 mph - N/A   Partly Cloudy
11:55 PM 80.6 °F 83.9 °F 69.8 °F 70% 30.21 in 10.0 mi South 9.2 mph - N/A   Scattered Clouds